Regional Weather Roundup
Issued by NWS Goodland, KS

Home | Current Version | Previous Version | Graphics & Text | Print | Product List | Glossary On
Versions: 1 2 3 4 5 6 7 8 9 10 11 12 13 14 15 16 17 18 19 20 21 22 23 24 25 26 27 28 29 30 31 32 33 34 35 36 37 38 39 40 41 42 43 44 45 46 47 48 49 50
000
ASUS43 KGLD 251908
RWRGLD

GOODLAND FORECAST AREA HOURLY WEATHER ROUNDUP
NATIONAL WEATHER SERVICE GOODLAND KS
1200 PM MST TUE NOV 25 2014

...OFFICIAL OBSERVATIONS...

CITY           SKY/WX    TMP DP  RH WIND       PRES   REMARKS
GOODLAND KS    CLOUDY    45   9  23 SW17G28   29.95F
HILL CITY KS   PTSUNNY   48  17  29 SW15G24   30.01F
IMPERIAL NEB   CLOUDY    44  14  29 SW12      29.89F
MCCOOK NEB     CLOUDY    46  16  30 SW17      29.94F
AKRON CO       CLOUDY    44  12  27 SW17      29.88F
BURLINGTON CO  CLOUDY    43   9  24 SW17      29.95F
LIMON CO       CLOUDY    43  12  28 W14       29.92F
$$

...UNOFFICIAL OBSERVATIONS...

CITY           SKY/WX    TMP DP  RH WIND       PRES   REMARKS
COLBY KS       CLOUDY    46  19  34 SW21G29   29.97F
GOVE KS          N/A     47  32  56 MISG        N/A
NORTON KS      PTSUNNY   48  10  21 SW20      29.97F
SHARON SPRINGS   N/A     46  13  26 SW21G28     N/A
TRIBUNE KS     PTSUNNY   48  19  32 SW20G25   29.99F
TRENTON NEB      N/A     45  32  60 SW14        N/A
YUMA CO          N/A     45  11  25 SW10        N/A
$$



USA.gov is the U.S. government's official web portal to all federal, state and local government web resources and services.